Home   Weather   Brades   Past weeks
Flag for Montserrat

Past Weather in Brades, Montserrat — Yesterday and Last 2 Weeks

Now
81 °F

Passing clouds.


Feels Like: 85 °F
Forecast: 86 / 81 °F
Wind: 7 mph from Southeast

Location: Vc Bird International Antigua Airport

Current Time: Oct 19, 2019 at 9:09:36 pm

Latest Report: Oct 19, 2019 at 8:00 pm


Visibility: N/A

Pressure: 29.98 "Hg

Humidity: 79%

Dew Point: 73 °F

Location of BradesLocation

Past Weather in Brades — Graph

°F

Brades Temperature Yesterday

Maximum temperature yesterday: 86 °F (at 11:00 am)
Minimum temperature yesterday: 72 °F (at 12:32 pm)
Average temperature yesterday: 80 °F

High & Low Weather Summary for the Past Weeks

 TemperatureHumidityPressure
High90 °F (Oct 11, 11:00 am)94% (Oct 5, 4:00 am)30.01 "Hg (Oct 5, 4:00 am)
Low72 °F (Oct 18, 12:32 pm)52% (Oct 11, 1:00 pm)29.83 "Hg (Oct 10, 2:00 pm)
Average83 °F76%29.93 "Hg
* Reported Oct 4 8:00 pm — Oct 19 8:00 pm, Brades. Weather by CustomWeather, © 2019

Note: Actual official high and low records may vary slightly from our data, if they occured in-between our weather recording intervals... More about our weather records

Advertising

Brades Weather History for the Previous 24 Hours

Scroll right to see more
 ConditionsComfort  
Time TempWeatherWind HumidityBarometerVisibility
8:00 pm
Sat, Oct 19
81 °FPassing clouds.7 mph79%29.98 "HgN/A
7:00 pm82 °FPassing clouds.6 mph74%29.95 "HgN/A
6:00 pm82 °FPassing clouds.3 mph74%29.95 "HgN/A
5:00 pm82 °FPartly sunny.6 mph79%29.92 "HgN/A
4:00 pm82 °FPartly sunny.6 mph79%29.92 "HgN/A
3:00 pm84 °FPartly sunny.8 mph79%29.92 "HgN/A
2:00 pm84 °FLight rain. Partly sunny.7 mph74%29.92 "HgN/A
1:00 pm84 °FScattered showers. Partly sunny.10 mph74%29.95 "HgN/A
12:00 pm84 °FBroken clouds.9 mph74%29.95 "HgN/A
11:00 am82 °FLight rain. Broken clouds.3 mph84%29.98 "HgN/A
10:00 am81 °FPartly sunny.3 mph84%30.01 "HgN/A
9:00 am77 °FLight rain. Partly sunny.3 mph94%30.01 "HgN/A
8:31 am79 °FRain showers. Partly sunny.10 mph89%29.98 "HgN/A
8:00 am82 °FBroken clouds.2 mph74%29.98 "HgN/A
7:00 am82 °FScattered clouds.2 mph79%29.98 "HgN/A
6:00 am81 °FPassing clouds.5 mph84%29.95 "HgN/A
5:00 am77 °FPassing clouds.1 mph94%29.92 "HgN/A
1:00 am79 °FPassing clouds.2 mph89%29.95 "HgN/A
12:00 am79 °FPassing clouds.3 mph89%29.95 "HgN/A
10:00 pm
Fri, Oct 18
81 °FPassing clouds.5 mph84%29.95 "HgN/A
9:00 pm81 °FPassing clouds.3 mph84%29.95 "HgN/A
Weather by CustomWeather, © 2019

See weather overview